Regional Weather Roundup
Issued by NWS Goodland, KS

Home | Current Version | Previous Version | Text Only | Print | Product List | Glossary Off
Versions: 1 2 3 4 5 6 7 8 9 10 11 12 13 14 15 16 17 18 19 20 21 22 23 24 25 26 27 28 29 30 31 32 33 34 35 36 37 38 39 40 41 42 43 44 45 46 47 48 49 50

000
ASUS43 KGLD 190408
RWRGLD

GOODLAND FORECAST AREA HOURLY WEATHER ROUNDUP
NATIONAL WEATHER SERVICE GOODLAND KS
1000 PM MDT THU SEP 18 2014

...OFFICIAL OBSERVATIONS...

CITY           SKY/WX    TMP DP  RH WIND       PRES   REMARKS
GOODLAND KS    CLEAR     71  54  54 S14       29.94S
HILL CITY KS   CLEAR     70  64  81 SE3       29.90R
IMPERIAL NEB   CLEAR     61  59  93 SE9       29.91S
MCCOOK NEB     CLEAR     61  60  97 CALM      29.90S FOG
AKRON CO       CLEAR     71  46  40 S17G23    29.95S
BURLINGTON CO  CLEAR     71  53  52 S15       29.97S
LIMON CO       CLEAR     66  48  52 S9        30.04R
$$

...UNOFFICIAL OBSERVATIONS...

CITY           SKY/WX    TMP DP  RH WIND       PRES   REMARKS
COLBY KS       CLEAR     66  63  88 S9        29.93S
GOVE KS          N/A     75  32  20 MISG        N/A
NORTON KS      CLEAR     63  61  94 CALM      29.88S FOG
SHARON SPRINGS   N/A     71  56  58 S13         N/A
WAKEENEY KS      N/A     73  60  64 MISG        N/A
TRENTON NEB      N/A     62  32  32 SE8         N/A
YUMA CO          N/A     62  56  82 CALM        N/A
$$


USA.gov is the U.S. government's official web portal to all federal, state and local government web resources and services.